Lid_Strength_Index
1 3 3 6 10 13 15 14 13 12 12 11 9 10 11 11 11 12 5 4 3 2 -0 -0 -1 -1 -1 -1 -1 -1 -1 -1 -1 -1 -1 -1 -1 -1 -1 -2 -2 -1 -1 -1 -1 -2 -2 -2 -2
3 3 5 8 13 16 15 14 13 12 10 10 10 11 11 12 9 8 7 6 4 3 -1 -1 -1 -2 -2 -1 -1 -1 -2 -1 -1 -1 -1 -1 -1 -1 -1 -2 -2 -1 -1 -1 -2 -2 -2 -2 -2
3 4 8 11 15 16 15 14 13 11 10 10 11 11 11 11 9 9 8 7 6 5 4 1 -1 -2 -2 -2 -2 -1 -1 -1 -1 -1 -1 -1 -1 -1 -2 -2 -2 -1 -1 -1 -2 -2 -2 -2 -2
6 7 9 13 15 14 13 13 11 11 11 10 11 12 11 9 10 9 8 7 7 6 5 2 -1 -1 -2 -2 -2 -2 -2 -1 -1 -1 -1 -1 -1 -1 -2 -2 -1 -2 -1 -2 -2 -2 -2 -2 -2
7 10 13 14 15 14 13 12 12 12 11 12 11 13 12 10 9 9 9 8 8 8 7 6 1 1 -1 -1 -2 -2 -2 -2 -2 -2 -1 -1 -2 -2 -1 -1 -2 -2 -1 -2 -2 -2 -1 -1 -1
9 11 14 16 14 13 13 11 11 12 12 12 12 13 13 11 11 10 10 10 9 9 8 8 5 2 2 1 1 -1 -2 -2 -1 -2 -2 -1 -2 -2 -2 -2 -1 -2 -1 -1 -2 -1 -1 -1 -1
10 12 13 15 14 13 12 11 12 13 13 12 11 14 13 12 11 11 11 11 11 10 10 9 8 6 4 3 2 2 2 -0 -2 -2 -1 -1 -1 -1 -1 -1 -1 -1 -2 -2 -2 -1 -1 -1 -1
10 12 13 14 14 14 12 11 12 11 12 11 11 15 16 13 12 12 12 12 12 11 11 10 10 9 8 8 4 3 4 2 1 -1 -1 -1 -1 -1 -1 -0 -1 -2 -2 -1 -1 -1 -1 -1 -1
9 12 14 14 13 13 12 12 11 12 13 13 13 13 13 12 13 13 13 13 12 11 11 11 10 10 9 9 7 6 5 4 2 2 2 1 -0 0 -0 -0 -1 -1 -1 -1 -1 -1 -1 -0 0
11 13 13 12 13 13 12 12 12 13 14 14 14 13 13 14 14 14 15 15 14 13 12 12 12 11 10 9 9 9 7 7 5 5 4 2 2 0 -0 0 0 -0 -0 -1 -1 -1 -1 0 -0
12 13 12 11 11 11 12 13 12 14 15 14 15 15 15 15 15 15 15 15 15 14 13 12 12 12 12 11 10 10 9 8 6 6 6 5 4 2 1 -0 -0 -0 1 0 -0 -0 -0 0 0
13 11 11 10 11 12 12 12 13 14 14 13 14 14 15 15 15 15 15 15 15 15 13 13 13 13 13 12 12 12 11 10 8 7 6 6 5 5 5 4 2 -0 -0 0 0 0 1 1 0
13 12 11 11 11 12 12 13 14 15 14 14 14 14 15 15 15 15 15 15 16 15 14 14 14 13 13 13 14 13 13 12 10 9 8 7 6 7 6 6 6 4 1 -0 0 0 0 1 1
12 11 11 11 11 12 13 14 13 14 14 15 14 15 15 15 15 16 16 16 16 15 15 15 14 14 14 14 14 13 13 12 12 12 10 8 7 8 7 7 8 6 3 1 -0 0 0 1 0
12 13 12 12 12 12 12 15 14 13 14 15 15 15 15 15 15 16 16 16 17 16 15 15 14 14 14 14 13 13 12 12 12 12 11 9 8 9 8 8 8 5 4 5 4 2 0 1 1
14 14 16 13 12 13 14 16 14 14 15 16 16 17 15 16 16 17 16 16 17 17 16 15 14 14 14 14 13 13 13 12 12 11 11 11 10 10 8 8 7 6 6 6 6 6 2 1 1
15 17 16 15 12 13 14 16 14 15 15 16 18 17 17 18 18 17 17 17 17 17 16 16 15 14 14 14 14 14 13 13 12 12 12 11 11 10 8 8 7 7 6 7 6 6 7 2 2
17 17 16 17 14 14 15 15 15 15 16 17 18 18 18 18 18 17 17 17 17 17 16 16 15 15 14 14 14 14 14 14 13 13 13 12 11 10 9 8 7 7 7 7 7 6 7 8 2
15 16 17 15 13 14 14 14 15 14 17 19 19 19 19 19 17 17 17 17 17 17 16 16 16 15 15 15 16 16 16 16 15 14 14 13 11 11 10 9 8 7 7 7 6 6 6 7 8
15 16 16 14 14 15 15 16 15 15 16 17 18 19 19 19 18 18 18 18 17 17 17 16 16 15 16 16 16 16 16 16 16 15 15 14 13 13 12 12 9 7 7 7 7 6 6 8 7
15 16 16 16 16 16 17 19 16 17 16 18 18 18 19 19 18 18 18 19 18 18 17 16 16 15 16 16 16 16 16 16 16 16 16 15 14 14 13 12 10 8 5 6 7 7 6 8 7
17 15 15 16 18 21 18 22 19 19 18 18 18 20 20 19 18 18 18 19 19 17 17 16 16 16 15 16 17 18 18 18 17 16 16 15 14 14 13 11 9 8 6 5 5 5 6 7 9
15 15 16 17 19 21 20 22 20 20 19 19 18 20 20 19 19 18 18 17 17 16 17 17 16 16 16 16 17 17 17 17 16 16 16 16 15 14 13 11 10 9 8 4 5 5 5 5 8
14 16 17 18 20 24 20 21 22 22 19 18 18 20 19 19 19 18 17 17 17 17 17 17 17 17 16 17 17 17 18 17 17 17 17 17 16 15 13 13 12 10 9 8 5 5 5 6 9
15 18 21 22 24 22 21 22 18 18 18 18 18 20 20 19 19 19 18 18 18 18 17 17 17 17 17 17 17 17 17 17 17 17 17 17 17 16 15 14 13 12 11 9 8 5 5 6 9
16 17 20 24 24 19 21 23 20 20 19 17 17 19 20 20 19 19 18 18 18 18 17 17 18 18 17 17 17 17 17 17 17 17 17 17 17 16 15 14 14 14 12 9 8 5 5 7 9
17 19 17 21 31 28 23 21 19 21 21 21 20 20 20 20 19 19 18 18 18 18 18 18 18 17 17 17 18 18 17 17 17 17 17 17 16 16 15 16 16 15 13 12 10 9 5 7 9
17 16 20 21 25 27 24 23 20 22 22 21 21 21 21 20 19 18 18 18 18 18 18 18 18 18 18 18 18 18 18 18 17 17 17 17 16 16 17 17 16 15 15 14 11 10 6 7 9
20 20 20 19 19 23 24 20 19 20 19 21 20 20 20 19 19 18 18 18 18 18 19 19 19 19 18 18 19 19 18 18 17 17 17 17 17 17 18 17 16 16 15 14 13 11 10 9 11
18 18 18 20 22 21 22 21 19 18 18 19 20 20 20 19 19 18 18 19 19 19 19 20 20 19 19 19 19 19 19 19 18 18 18 17 17 17 18 17 17 17 16 15 14 12 11 10 11